星链-33569 (STARLINK-33569)

导读

STARLINK-33569是美国SpaceX星链星座的一员,于2025年1月21日发射入轨,是星链低轨互联网星座组网过程中部署的卫星。星链星座旨在为全球提供覆盖广泛的高速卫星互联网服务,该卫星承担着补网增强星座覆盖容量与服务稳定性的任务,助力星链系统完成全球组网布局。

基本信息
目录编号:
62769
目录名称:
STARLINK-33569
国际标识:
2025-015M
轨道中心:
EARTH
卫星名称:
星链-33569
卫星全名:
星链-33569 (STARLINK-33569)
卫星状态:
在轨 (已飞行592 天)
发射日期:
2025-01-21 UTC
国别 :
美国 (US)
星等 :
--
轨道信息
数据来源 国际轨道数据
星历时间: 2026-09-04T20:14:22+0800
19小时前
查看轨道信息
半长轴: 6840.837km
偏心率: 0.000191
轨道倾角: 53.157°
近地点辐角 82.262°
升交点赤经 208.713°
平近点角 277.860°
近地点: 461.393km
远地点: 464.007km
周期: 93.848分钟
每日圈数: 15.344014
详细信息
固有亮度:
5
最大亮度:
2.5
卫星平台:
Starlink V1.0
覆盖范围:
全球
运营商:
太空探索技术公司
运营商所在国:
美国
制造商(研发单位):
太空探索技术公司
制造商所在国:
美国
使用方式:
暂无
卫星简介
Starlink 计划是 SpaceX 推出的全球卫星互联网项目,通过发射低轨道卫星,为全球尤其是偏远地区提供高速、低延迟的互联网服务。自 2019 年起,Starlink 已部署数千颗卫星,旨在缩小全球数字鸿沟,推动互联网普及。该项目还为军事、航空等行业提供通信支持,带来广泛经济效益。
2D轨道图
3D轨道图
轨道高度分析图
轨道倾角分析图
轨道综合分析图
查看轨道综合分析图
交会数据列表
事件ID 空间交会对象 最接近时刻(TCA) 交会距离 交会风险概率(CRP) 交会风险指数(CRI) 操作
CDM_260902-234005-083406-276921
2026-09-02T
23:40:54+0000
2.642 km
极远距离
1.328603E-6 低风险 0.37